Regional Weather Roundup
Issued by NWS Upton, NY

Current Version | Previous Version | Text Only | Print | Product List | Glossary Off
Versions: 1 2 3 4 5 6 7 8 9 10 11 12 13 14 15 16 17 18 19 20 21 22 23 24 25 26 27 28 29 30 31 32 33 34 35 36 37 38 39 40 41 42 43 44 45 46 47 48 49 50
000 ASUS41 KOKX 241805 RWROKX REGIONAL WEATHER ROUNDUP NATIONAL WEATHER SERVICE NEW YORK NY 200 PM EDT SUN JUL 24 2016 NOTE: "FAIR" INDICATES FEW OR NO CLOUDS BELOW 12,000 FEET WITH NO SIGNIFICANT WEATHER AND/OR OBSTRUCTIONS TO VISIBILITY. NYZ071-072-176-178-NJZ106-104-241900- NEW YORK CITY METRO AREA CITY SKY/WX TMP DP RH WIND PRES REMARKS Central Park MOSUNNY 92 60 34 SW6 29.98F HX 91 LaGuardia APRT PTSUNNY 93 56 28 N5 29.95F HX 91 Kennedy INTL PTSUNNY 86 61 42 S14 29.98S Newark/Liberty PTSUNNY 94 56 27 W10G18 29.96S HX 92 BRNX BOT. GARD N/A 91 59 33 E5 29.98S HX 90 Wall St Helipt PTCLDY 91 63 38 SW3 29.97S HX 92 Teterboro PTSUNNY 92 54 27 CALM 29.94F HX 90 $$ NYZ177-179-078>081-241900- LONG ISLAND NEW YORK CITY SKY/WX TMP DP RH WIND PRES REMARKS FARMINGDALE CLOUDY 86 65 49 S15 29.97S ISLIP PTSUNNY 85 62 46 S8 29.97R SHIRLEY PTSUNNY 89 59 36 VRB3 29.97S RIVERHEAD NOT AVBL WESTHAMPTON CLOUDY 84 61 45 S7 29.99S SOUTHAMPTON N/A 79 66 65 SW5 29.94S BRIDGEHAMPTON N/A 88 64 45 S1 29.96S EAST HAMPTON FAIR 86 61 42 W10 29.96S MONTAUK POINT N/A 84 64 50 VRB6 29.97F $$ NYZ052-065-067-241900- HUDSON VALLEY CITY SKY/WX TMP DP RH WIND PRES REMARKS WHITE PLAINS MOSUNNY 90 56 31 VRB3 29.97F NEWBURGH MOSUNNY 88 63 42 VRB6 29.99S MONTGOMERY MOSUNNY 92 58 31 CALM 29.96F HX 91 POUGHKEEPSIE PTSUNNY 91 56 30 N7 29.95F ALBANY PTSUNNY 85 62 46 N3 29.98F $$ NJZ001-105-106-008-010-013-015-019>022-104-241900- NEW JERSEY CITY SKY/WX TMP DP RH WIND PRES REMARKS NEWARK/LIBERTY PTSUNNY 94 56 27 W10G18 29.96S HX 92 TETERBORO PTSUNNY 92 54 27 CALM 29.94F HX 90 CALDWELL PTSUNNY 92 58 31 VRB5 29.97S HX 91 MORRISTOWN PTSUNNY 90 57 33 N8 29.98S SOMERVILLE MOSUNNY 91 59 33 VRB7 29.96F HX 90 SUSSEX MOSUNNY 91 58 32 VRB6 29.98F HX 90 ANDOVER N/A 89 60 37 VRB5 30.00S TRENTON SUNNY 90 60 36 CALM 29.98F MILLVILLE CLOUDY 89 65 44 VRB6 30.00F HX 91 ATLANTIC CITY NOT AVBL WRIGHTSTOWN MOSUNNY 93 58 30 NW10 29.96S HX 92 TOMS RIVER CLOUDY 90 68 48 SE14 29.99S HX 93 BELMAR MOSUNNY 86 63 45 S10 30.00S $$ PAZ047>061-062-071-241900- EASTERN PENNSYLVANIA CITY SKY/WX TMP DP RH WIND PRES REMARKS PHILADELPHIA PTSUNNY 92 59 33 S10 29.99F HX 91 ALLENTOWN PTSUNNY 92 61 35 VRB3 29.99F HX 92 SCRANTON CLOUDY 89 59 36 W8 30.00F $$ CTZ002-004>006-009-010-012-RIZ004-006-007-MAZ004-011-015-241900- SOUTHERN NEW ENGLAND IN CT CITY SKY/WX TMP DP RH WIND PRES REMARKS BRADLEY INTL PTSUNNY 90 55 30 NW12G21 29.94F HARTFORD MOSUNNY 92 58 31 N10 29.94F HX 91 DANBURY MOSUNNY 89 57 33 N7 29.98F WTRBRY/OXFORD PTSUNNY 84 55 37 N13G20 30.01S BRIDGEPORT CLOUDY 86 62 44 SW10 29.96F MERIDEN MOSUNNY 91 58 32 W9 29.95F HX 90 NEW HAVEN CLOUDY 84 62 47 VRB7 29.96F CHESTER FAIR 86 57 37 VRB7 29.97S GROTON MOSUNNY 82 63 52 SW14 29.95F WILLIMANTIC NOT AVBL IN RI CITY SKY/WX TMP DP RH WIND PRES REMARKS PROVIDENCE PTSUNNY 86 59 39 NW8 29.95S BLOCK ISLAND PTSUNNY 79 64 60 SW13 29.97F WESTERLY MOSUNNY 85 60 42 W10 29.95F IN MA CITY SKY/WX TMP DP RH WIND PRES REMARKS BOSTON MOSUNNY 88 57 34 W10 29.92S WORCESTER MOSUNNY 82 57 42 W13 29.98F WESTFIELD SUNNY 89 57 33 NW8G17 29.95F PROVINCETOWN MOSUNNY 79 63 57 N6 29.95S NANTUCKET MOSUNNY 79 65 62 VRB6 29.95F $$ ANZ330-335-338-340-345-350-353-355-241900- COASTAL MARINE OBSERVATIONS STATION/POSITION TIME SKY/WX TEMP WIND PRES VSBY WAVE AIR SEA DIR/SP/G HT/PER (UTC) (F) (DEG/KT/KT) (MB) (MI) (FT/S) NY HARB ENTRANCE 1650 77 75 160/ 6/ 8 1015.1 2/ 8 20S FIRE ISLAND 1650 75 75 160/ 6/ 8 1015.0 2/ 6 GREAT SOUTH BAY 1700 77 82 190/ 10/ 12 N/A 23 SSW MONTAUK P 1650 74 74 220/ 6/ 6 1015.5 2/ 6 15 E BARNEGAT LI 1722 77 N/A 2/ 6 HUDSON CANYON 1650 77 78 1015.7 3/ 6 KINGS POINT 1700 84 72 1014.7 EXECUTION ROCKS 1700 81 120/ 4/ 6 N/A CENTRAL LI SOUND 1700 76 74 210/ 6/ 8 N/A 1/ 2 EASTERN LI SOUND 1700 73 69 220/ 8/ 10 N/A ROBBINS REEF 1700 83 150/ 11/ 12 1014.3 $$ >>>>>>>>>>>>>>>>>>>>>>>>>>>> KEY <<<<<<<<<<<<<<<<<<<<<<<<<<< > < > SKY/WX - SKY CONDITION/PRESENT WEATHER < > TMP - TEMPERATURE IN FAHRENHEIT < > DP - DEWPOINT IN FAHRENHEIT < > RH - RELATIVE HUMIDITY IN PERCENT < > WIND - DIRECTION AND SPEED IN MPH < > PRES - MEAN SEA LEVEL PRESSURE IN INCHES OF HG < > WCI - WIND CHILL INDEX < > VSB - VISIBILITY IN MILES < > HX - HEAT INDEX < > TC - TEMPERATURE IN CELSIUS < > VRB - VARIABLE WIND DIRECTION < > < >>>>>>>>>>>>>>>>>>>>>>>>>>>> KEY <<<<<<<<<<<<<<<<<<<<<<<<<<<

USA.gov is the U.S. government's official web portal to all federal, state and local government web resources and services.